,,PA_Meas_PMT16A,,PR_Meas_QMR101_102,,RH_Meas_QMH101,,SR_Meas_QMS101,,TA_Meas_QMH101,,GenWind,,GenWind,
time,status,PA,status,PR,status,RH,status,SR,status,TA,status,DirAvg,status,SpdAvg,
2017-02-28, 15:21:04,VALID,917.985,VALID,0,INVALID,133.997,VALID,95.3003,VALID,19.4327,VALID,129,VALID,2.20664,
2017-02-28, 15:22:04,VALID,917.987,VALID,0,INVALID,134.035,VALID,98.8459,VALID,19.4118,VALID,134,VALID,2.03203,
2017-02-28, 15:23:04,VALID,917.978,VALID,0,INVALID,134.035,VALID,102.391,VALID,19.4523,VALID,139,VALID,2.20508,
2017-02-28, 15:24:04,VALID,917.985,VALID,0,INVALID,134.027,VALID,105.185,VALID,19.4718,VALID,145,VALID,2.06484,
2017-02-28, 15:25:04,VALID,918.003,VALID,0,INVALID,133.974,VALID,107.334,VALID,19.4913,VALID,143,VALID,2.08047,
2017-02-28, 15:26:04,VALID,917.986,VALID,0,INVALID,134.119,VALID,109.053,VALID,19.4508,VALID,150,VALID,3.30156,
2017-02-28, 15:27:04,VALID,918.001,VALID,0,INVALID,134.104,VALID,111.524,VALID,19.5108,VALID,145,VALID,2.15234,
2017-02-28, 15:28:04,VALID,918.004,VALID,0,INVALID,134.119,VALID,113.028,VALID,19.4898,VALID,146,VALID,2.9918,
2017-02-28, 15:29:04,VALID,918.055,VALID,0,INVALID,134.104,VALID,113.673,VALID,19.4913,VALID,156,VALID,2.00273,
2017-02-28, 15:30:04,VALID,918.024,VALID,0,INVALID,134.104,VALID,113.995,VALID,19.5108,VALID,162,VALID,2.36367,
2017-02-28, 15:31:04,VALID,918.036,VALID,0,INVALID,134.142,VALID,114.317,VALID,19.5108,VALID,146,VALID,2.85,
2017-02-28, 15:32:04,VALID,918.048,VALID,0,INVALID,134.111,VALID,114.21,VALID,19.4898,VALID,153,VALID,1.85352,
2017-02-28, 15:33:04,VALID,918.107,VALID,0,INVALID,134.119,VALID,114.425,VALID,19.5498,VALID,146,VALID,2.11992,
2017-02-28, 15:34:04,VALID,918.084,VALID,0,INVALID,134.111,VALID,116.036,VALID,19.5483,VALID,141,VALID,2.04297,
2017-02-28, 15:35:04,VALID,918.078,VALID,0,INVALID,134.157,VALID,117.756,VALID,19.5288,VALID,151,VALID,3.15937,
2017-02-28, 15:36:04,VALID,918.111,VALID,0,INVALID,134.119,VALID,118.722,VALID,19.5093,VALID,147,VALID,2.88867,
2017-02-28, 15:37:04,VALID,918.098,VALID,0,INVALID,134.111,VALID,119.045,VALID,19.5093,VALID,148,VALID,3.15078,
2017-02-28, 15:38:04,VALID,918.122,VALID,0,INVALID,134.096,VALID,118.615,VALID,19.5693,VALID,156,VALID,2.73555,
2017-02-28, 15:39:04,VALID,918.12,VALID,0,INVALID,134.104,VALID,118.185,VALID,19.5288,VALID,156,VALID,2.9332,
2017-02-28, 15:40:04,VALID,918.105,VALID,0,INVALID,134.111,VALID,118.4,VALID,19.5483,VALID,152,VALID,3.14453,
2017-02-28, 15:41:04,VALID,918.123,VALID,0,INVALID,134.096,VALID,119.152,VALID,19.5888,VALID,156,VALID,3.18203,
2017-02-28, 15:42:04,VALID,918.132,VALID,0,INVALID,134.096,VALID,120.334,VALID,19.5678,VALID,143,VALID,2.94258,
2017-02-28, 15:43:04,VALID,918.126,VALID,0,INVALID,134.111,VALID,120.334,VALID,19.5678,VALID,140,VALID,3.02617,
2017-02-28, 15:44:04,VALID,918.178,VALID,0,INVALID,134.081,VALID,120.227,VALID,19.6068,VALID,139,VALID,2.70508,
2017-02-28, 15:45:04,VALID,918.154,VALID,0,INVALID,134.096,VALID,121.301,VALID,19.6458,VALID,139,VALID,2.53984,
2017-02-28, 15:46:04,VALID,918.174,VALID,0,INVALID,134.096,VALID,123.342,VALID,19.6848,VALID,141,VALID,2.29844,
2017-02-28, 15:47:04,VALID,918.189,VALID,0,INVALID,134.073,VALID,126.136,VALID,19.6458,VALID,134,VALID,3.00703,
2017-02-28, 15:48:04,VALID,918.197,VALID,0,INVALID,133.814,VALID,128.5,VALID,19.7433,VALID,129,VALID,2.35352,
2017-02-28, 15:49:04,VALID,918.175,VALID,0,INVALID,133.882,VALID,133.12,VALID,19.8213,VALID,142,VALID,2.31406,
2017-02-28, 15:50:04,VALID,918.19,VALID,0,INVALID,133.738,VALID,135.483,VALID,19.8213,VALID,146,VALID,3.02891,
2017-02-28, 15:51:04,VALID,918.191,VALID,0,INVALID,133.875,VALID,136.665,VALID,19.8603,VALID,126,VALID,2.15391,
2017-02-28, 15:52:04,VALID,918.178,VALID,0,INVALID,133.989,VALID,137.74,VALID,19.9188,VALID,131,VALID,2.025,
2017-02-28, 15:53:04,VALID,918.147,VALID,0,INVALID,133.852,VALID,140.318,VALID,19.8603,VALID,140,VALID,2.72969,
2017-02-28, 15:54:04,VALID,918.177,VALID,0,INVALID,133.387,VALID,143.326,VALID,19.8603,VALID,143,VALID,2.85,
2017-02-28, 15:55:04,VALID,918.201,VALID,0,INVALID,133.273,VALID,146.335,VALID,19.9383,VALID,140,VALID,2.72266,
2017-02-28, 15:56:04,VALID,918.227,VALID,0,INVALID,133.234,VALID,147.946,VALID,19.9578,VALID,129,VALID,2.97383,
2017-02-28, 15:57:04,VALID,918.197,VALID,0,INVALID,133.448,VALID,149.236,VALID,19.9968,VALID,155,VALID,2.75938,
2017-02-28, 15:58:04,VALID,918.213,VALID,0,INVALID,133.196,VALID,149.128,VALID,19.9173,VALID,148,VALID,3.32344,
2017-02-28, 15:59:04,VALID,918.223,VALID,0,INVALID,133.364,VALID,146.442,VALID,19.9383,VALID,134,VALID,2.18711,
2017-02-28, 16:00:04,VALID,918.227,VALID,0,INVALID,133.288,VALID,141.822,VALID,19.9383,VALID,136,VALID,2.66602,
2017-02-28, 16:01:04,VALID,918.25,VALID,0,INVALID,133.166,VALID,138.062,VALID,19.9173,VALID,141,VALID,2.63711,
2017-02-28, 16:02:04,VALID,918.272,VALID,0,INVALID,133.288,VALID,133.979,VALID,19.9173,VALID,144,VALID,2.69375,
2017-02-28, 16:03:04,VALID,918.305,VALID,0,INVALID,133.326,VALID,128.07,VALID,19.9383,VALID,155,VALID,2.65039,
2017-02-28, 16:04:04,VALID,918.311,VALID,0,INVALID,133.41,VALID,125.921,VALID,19.9173,VALID,137,VALID,3.30078,
2017-02-28, 16:05:04,VALID,918.341,VALID,0,INVALID,133.074,VALID,127.425,VALID,19.9563,VALID,127,VALID,2.80977,
2017-02-28, 16:06:04,VALID,918.355,VALID,0,INVALID,133.25,VALID,127.533,VALID,20.0148,VALID,143,VALID,2.14844,
2017-02-28, 16:07:04,VALID,918.334,VALID,0,INVALID,132.998,VALID,129.467,VALID,20.0343,VALID,139,VALID,2.29023,
2017-02-28, 16:08:04,VALID,918.358,VALID,0,INVALID,131.969,VALID,132.582,VALID,20.0358,VALID,142,VALID,2.59531,
2017-02-28, 16:09:04,VALID,918.343,VALID,0,INVALID,131.695,VALID,131.615,VALID,20.1139,VALID,135,VALID,2.14844,
2017-02-28, 16:10:04,VALID,918.354,VALID,0,INVALID,132.426,VALID,132.045,VALID,20.1513,VALID,141,VALID,2.275,
2017-02-28, 16:11:04,VALID,918.36,VALID,0,INVALID,132.442,VALID,132.582,VALID,20.1529,VALID,141,VALID,2.34453,
2017-02-28, 16:12:04,VALID,918.357,VALID,0,INVALID,131.207,VALID,132.69,VALID,20.0733,VALID,128,VALID,2.04766,
2017-02-28, 16:13:04,VALID,918.348,VALID,0,INVALID,131.755,VALID,130.648,VALID,20.1529,VALID,135,VALID,2.23711,
2017-02-28, 16:14:04,VALID,918.369,VALID,0,INVALID,131.679,VALID,132.475,VALID,20.1123,VALID,137,VALID,2.22383,
2017-02-28, 16:15:04,VALID,918.373,VALID,0,INVALID,132.289,VALID,139.351,VALID,20.1123,VALID,151,VALID,1.91328,
2017-02-28, 16:16:04,VALID,918.418,VALID,0,INVALID,132.838,VALID,145.368,VALID,20.1513,VALID,139,VALID,1.65703,
2017-02-28, 16:17:04,VALID,918.388,VALID,0,INVALID,132.129,VALID,148.161,VALID,20.0928,VALID,149,VALID,2.38945,
2017-02-28, 16:18:04,VALID,918.392,VALID,0,INVALID,132.022,VALID,149.451,VALID,20.0733,VALID,150,VALID,1.78047,
2017-02-28, 16:19:04,VALID,918.362,VALID,0,INVALID,132.808,VALID,151.492,VALID,20.1513,VALID,174,VALID,1.76133,
2017-02-28, 16:20:04,VALID,918.399,VALID,0,INVALID,131.603,VALID,155.252,VALID,20.0928,VALID,103,VALID,0.569141,
2017-02-28, 16:21:04,VALID,918.388,VALID,0,INVALID,131.877,VALID,159.228,VALID,20.1708,VALID,160,VALID,2.19648,
2017-02-28, 16:22:04,VALID,918.362,VALID,0,INVALID,132.571,VALID,160.087,VALID,20.2098,VALID,148,VALID,1.41992,
2017-02-28, 16:23:04,VALID,918.379,VALID,0,INVALID,132.93,VALID,163.74,VALID,20.2293,VALID,145,VALID,1.80078,
2017-02-28, 16:24:04,VALID,918.357,VALID,0,INVALID,132.945,VALID,171.154,VALID,20.1903,VALID,158,VALID,2.01719,
2017-02-28, 16:25:04,VALID,918.366,VALID,0,INVALID,133.219,VALID,175.237,VALID,20.1903,VALID,160,VALID,1.25352,
2017-02-28, 16:26:04,VALID,918.369,VALID,0,INVALID,133.212,VALID,179.212,VALID,20.1903,VALID,146,VALID,1.74883,
2017-02-28, 16:27:04,VALID,918.388,VALID,0,INVALID,133.341,VALID,182.972,VALID,20.1903,VALID,153,VALID,1.77227,
2017-02-28, 16:28:04,VALID,918.367,VALID,0,INVALID,133.242,VALID,190.601,VALID,20.1903,VALID,145,VALID,1.67109,
2017-02-28, 16:29:04,VALID,918.352,VALID,0,INVALID,133.097,VALID,198.874,VALID,20.2293,VALID,144,VALID,2.13516,
2017-02-28, 16:30:04,VALID,918.352,VALID,0,INVALID,133.234,VALID,206.932,VALID,20.2879,VALID,145,VALID,2.62344,
2017-02-28, 16:31:04,VALID,918.375,VALID,0,INVALID,132.091,VALID,215.957,VALID,20.3074,VALID,144,VALID,2.07344,
2017-02-28, 16:32:04,VALID,918.373,VALID,0,INVALID,132.114,VALID,222.296,VALID,20.3854,VALID,150,VALID,2.10508,
2017-02-28, 16:33:04,VALID,918.379,VALID,0,INVALID,131.29,VALID,224.122,VALID,20.3854,VALID,157,VALID,2.17891,
2017-02-28, 16:34:04,VALID,918.403,VALID,0,INVALID,130.627,VALID,224.659,VALID,20.3643,VALID,146,VALID,2.09922,
2017-02-28, 16:35:04,VALID,918.408,VALID,0,INVALID,131.443,VALID,225.626,VALID,20.4244,VALID,151,VALID,2.29336,
2017-02-28, 16:36:04,VALID,918.43,VALID,0,INVALID,132.03,VALID,225.089,VALID,20.4618,VALID,158,VALID,2.27695,
2017-02-28, 16:37:04,VALID,918.414,VALID,0,INVALID,131.969,VALID,223.263,VALID,20.4634,VALID,155,VALID,2.38203,
2017-02-28, 16:38:04,VALID,918.438,VALID,0,INVALID,132.053,VALID,221.221,VALID,20.5219,VALID,136,VALID,2.01367,
2017-02-28, 16:39:04,VALID,918.421,VALID,0,INVALID,132.815,VALID,217.568,VALID,20.6179,VALID,147,VALID,1.51328,
2017-02-28, 16:40:04,VALID,918.437,VALID,0,INVALID,131.961,VALID,210.477,VALID,20.6179,VALID,168,VALID,0.552734,
2017-02-28, 16:41:04,VALID,918.464,VALID,0,INVALID,131.191,VALID,203.494,VALID,20.5984,VALID,164,VALID,1.03516,
2017-02-28, 16:42:04,VALID,918.462,VALID,0,INVALID,130.894,VALID,196.617,VALID,20.5789,VALID,174,VALID,1.7707,
2017-02-28, 16:43:04,VALID,918.455,VALID,0,INVALID,130.414,VALID,191.568,VALID,20.5399,VALID,158,VALID,2.07969,
2017-02-28, 16:44:04,VALID,918.474,VALID,0,INVALID,130.78,VALID,192.427,VALID,20.5609,VALID,170,VALID,1.2668,
2017-02-28, 16:45:04,VALID,918.455,VALID,0,INVALID,131.359,VALID,206.072,VALID,20.5789,VALID,167,VALID,0,
2017-02-28, 16:46:04,VALID,918.458,VALID,0,INVALID,132.091,VALID,221.006,VALID,20.6569,VALID,175,VALID,0,
2017-02-28, 16:47:04,VALID,918.505,VALID,0,INVALID,132.853,VALID,236.478,VALID,20.7739,VALID,139,VALID,0,
2017-02-28, 16:48:04,VALID,918.469,VALID,0,INVALID,132.99,VALID,244.536,VALID,20.8309,VALID,160,VALID,0,
2017-02-28, 16:49:04,VALID,918.51,VALID,0,INVALID,132.457,VALID,250.66,VALID,20.8714,VALID,181,VALID,0.919141,
2017-02-28, 16:50:04,VALID,918.447,VALID,0,INVALID,130.879,VALID,252.594,VALID,20.8324,VALID,153,VALID,1.91562,
2017-02-28, 16:51:04,VALID,918.464,VALID,0,INVALID,130.147,VALID,258.074,VALID,20.7755,VALID,127,VALID,2.40977,
2017-02-28, 16:52:04,VALID,918.506,VALID,0,INVALID,131.329,VALID,262.479,VALID,20.834,VALID,156,VALID,2.17734,
2017-02-28, 16:53:04,VALID,918.479,VALID,0,INVALID,130.055,VALID,260.545,VALID,20.7544,VALID,152,VALID,1.42109,
2017-02-28, 16:54:04,VALID,918.513,VALID,0,INVALID,131.29,VALID,256.892,VALID,20.8519,VALID,178,VALID,1.2375,
2017-02-28, 16:55:04,VALID,918.482,VALID,0,INVALID,131.054,VALID,251.197,VALID,20.9105,VALID,172,VALID,1.10312,
2017-02-28, 16:56:04,VALID,918.496,VALID,0,INVALID,132.007,VALID,245.718,VALID,21.0665,VALID,165,VALID,0.400781,
2017-02-28, 16:57:04,VALID,918.504,VALID,0,INVALID,131.069,VALID,239.057,VALID,21.1055,VALID,185,VALID,1.27773,
2017-02-28, 16:58:04,VALID,918.495,VALID,0,INVALID,131.275,VALID,231.965,VALID,21.1445,VALID,180,VALID,1.27031,
2017-02-28, 16:59:04,VALID,918.536,VALID,0,INVALID,131.588,VALID,231.106,VALID,21.2031,VALID,154,VALID,0,
2017-02-28, 17:00:04,VALID,918.506,VALID,0,INVALID,131.031,VALID,234.651,VALID,21.2616,VALID,185,VALID,0,
2017-02-28, 17:01:04,VALID,918.502,VALID,0,INVALID,130.177,VALID,238.627,VALID,21.3006,VALID,185,VALID,0,
2017-02-28, 17:02:04,VALID,918.511,VALID,0,INVALID,128.927,VALID,236.263,VALID,21.3006,VALID,178,VALID,0,
2017-02-28, 17:03:04,VALID,918.508,VALID,0,INVALID,129.796,VALID,223.692,VALID,21.3786,VALID,184,VALID,0.605859,
2017-02-28, 17:04:04,VALID,918.52,VALID,0,INVALID,129.247,VALID,216.816,VALID,21.4177,VALID,196,VALID,0.359766,
2017-02-28, 17:05:04,VALID,918.536,VALID,0,INVALID,118.613,VALID,212.733,VALID,21.3965,VALID,163,VALID,1.33867,
2017-02-28, 17:06:04,VALID,918.504,VALID,0,INVALID,126.267,VALID,206.609,VALID,21.3981,VALID,148,VALID,0.941406,
2017-02-28, 17:07:04,VALID,918.498,VALID,0,INVALID,120.778,VALID,209.51,VALID,21.3006,VALID,134,VALID,1.12617,
2017-02-28, 17:08:04,VALID,918.499,VALID,0,INVALID,121.098,VALID,215.527,VALID,21.2811,VALID,146,VALID,1.6332,
2017-02-28, 17:09:04,VALID,918.493,VALID,0,INVALID,124.872,VALID,219.18,VALID,21.2616,VALID,132,VALID,1.08359,
2017-02-28, 17:10:04,VALID,918.47,VALID,0,INVALID,129.751,VALID,221.759,VALID,21.299,VALID,152,VALID,0.617969,
2017-02-28, 17:11:04,VALID,918.482,VALID,0,INVALID,130.749,VALID,227.345,VALID,21.4177,VALID,199,VALID,0,
2017-02-28, 17:12:04,VALID,918.489,VALID,0,INVALID,129.651,VALID,234.007,VALID,21.4957,VALID,162,VALID,0,
2017-02-28, 17:13:04,VALID,918.449,VALID,0,INVALID,129.69,VALID,237.015,VALID,21.6128,VALID,168,VALID,0.186328,
2017-02-28, 17:14:04,VALID,918.474,VALID,0,INVALID,116.059,VALID,242.172,VALID,21.6323,VALID,139,VALID,0.499219,
2017-02-28, 17:15:04,VALID,918.474,VALID,0,INVALID,119.009,VALID,254.528,VALID,21.6128,VALID,152,VALID,1.73477,
2017-02-28, 17:16:04,VALID,918.461,VALID,0,INVALID,120.008,VALID,271.504,VALID,21.5932,VALID,168,VALID,1.08008,
2017-02-28, 17:17:04,VALID,918.481,VALID,0,INVALID,128.554,VALID,279.777,VALID,21.6713,VALID,170,VALID,0.571094,
2017-02-28, 17:18:04,VALID,918.436,VALID,0,INVALID,127.555,VALID,297.397,VALID,21.7087,VALID,205,VALID,0,
2017-02-28, 17:19:04,VALID,918.443,VALID,0,INVALID,126.694,VALID,315.125,VALID,21.7477,VALID,155,VALID,0,
2017-02-28, 17:20:04,VALID,918.459,VALID,0,INVALID,128.142,VALID,309.001,VALID,21.7883,VALID,175,VALID,0,
2017-02-28, 17:21:04,VALID,918.454,VALID,0,INVALID,127.128,VALID,307.282,VALID,21.7477,VALID,177,VALID,0.924219,
2017-02-28, 17:22:04,VALID,918.455,VALID,0,INVALID,129.286,VALID,292.347,VALID,21.8257,VALID,177,VALID,0,
2017-02-28, 17:23:04,VALID,918.441,VALID,0,INVALID,125.352,VALID,282.785,VALID,21.8452,VALID,181,VALID,0,
2017-02-28, 17:24:04,VALID,918.46,VALID,0,INVALID,114.717,VALID,279.777,VALID,21.8452,VALID,184,VALID,0,
2017-02-28, 17:25:04,VALID,918.444,VALID,0.2,INVALID,118.826,VALID,283.967,VALID,21.8842,VALID,205,VALID,0,
2017-02-28, 17:26:04,VALID,918.461,VALID,0,INVALID,125.733,VALID,288.157,VALID,21.9233,VALID,191,VALID,0,
2017-02-28, 17:27:04,VALID,918.472,VALID,0,INVALID,126.091,VALID,285.579,VALID,21.9233,VALID,180,VALID,0,
2017-02-28, 17:28:04,VALID,918.441,VALID,0,INVALID,128.676,VALID,278.487,VALID,21.9428,VALID,177,VALID,0,
2017-02-28, 17:29:04,VALID,918.453,VALID,0,INVALID,129.507,VALID,279.562,VALID,21.9444,VALID,172,VALID,0,
2017-02-28, 17:30:04,VALID,918.442,VALID,0,INVALID,127.433,VALID,281.496,VALID,21.8274,VALID,166,VALID,0.0949219,
2017-02-28, 17:31:04,VALID,918.426,VALID,0,INVALID,129.339,VALID,286.331,VALID,21.8664,VALID,174,VALID,0,
2017-02-28, 17:32:04,VALID,918.444,VALID,0,INVALID,128.851,VALID,309.108,VALID,21.8469,VALID,166,VALID,0.00195313,
2017-02-28, 17:33:04,VALID,918.434,VALID,0,INVALID,129.171,VALID,336.291,VALID,21.8647,VALID,177,VALID,0,
2017-02-28, 17:34:04,VALID,918.446,VALID,0,INVALID,128.828,VALID,336.935,VALID,21.9444,VALID,193,VALID,0,
2017-02-28, 17:35:04,VALID,918.412,VALID,0,INVALID,129.781,VALID,351.118,VALID,22.0225,VALID,175,VALID,0.427344,
2017-02-28, 17:36:04,VALID,918.404,VALID,0,INVALID,127.235,VALID,353.589,VALID,21.9444,VALID,191,VALID,0.0289063,
2017-02-28, 17:37:04,VALID,918.41,VALID,0,INVALID,124.91,VALID,341.77,VALID,21.9038,VALID,175,VALID,0,
2017-02-28, 17:38:04,VALID,918.396,VALID,0,INVALID,129.773,VALID,323.828,VALID,22.0013,VALID,171,VALID,0,
2017-02-28, 17:39:04,VALID,918.4,VALID,0,INVALID,128.089,VALID,318.885,VALID,22.0598,VALID,218,VALID,0,
2017-02-28, 17:40:04,VALID,918.422,VALID,0,INVALID,128.645,VALID,322.001,VALID,22.1201,VALID,224,VALID,0,
2017-02-28, 17:41:04,VALID,918.389,VALID,0,VALID,94.8734,VALID,328.018,VALID,22.0225,VALID,124,VALID,0,
2017-02-28, 17:42:04,VALID,918.4,VALID,0,VALID,93.7375,VALID,328.77,VALID,22.0598,VALID,124,VALID,0,
2017-02-28, 17:43:04,VALID,918.399,VALID,0,INVALID,120.671,VALID,323.398,VALID,22.255,VALID,188,VALID,0.00429688,
2017-02-28, 17:44:04,VALID,918.372,VALID,0,INVALID,114.184,VALID,309.86,VALID,22.372,VALID,167,VALID,0,
2017-02-28, 17:45:04,VALID,918.372,VALID,0,INVALID,120.328,VALID,298.472,VALID,22.4501,VALID,141,VALID,0.00429688,
2017-02-28, 17:46:04,VALID,918.356,VALID,0,INVALID,123.637,VALID,294.066,VALID,22.4501,VALID,162,VALID,0.159766,
2017-02-28, 17:47:04,VALID,918.34,VALID,0,INVALID,121.098,VALID,285.041,VALID,22.3135,VALID,158,VALID,1.91992,
2017-02-28, 17:48:04,VALID,918.344,VALID,0,INVALID,118.46,VALID,277.95,VALID,22.2159,VALID,154,VALID,0.20625,
2017-02-28, 17:49:04,VALID,918.338,VALID,0,INVALID,118.293,VALID,276.339,VALID,22.1964,VALID,115,VALID,0,
2017-02-28, 17:50:04,VALID,918.324,VALID,0,INVALID,127.09,VALID,273.975,VALID,22.333,VALID,121,VALID,0,
2017-02-28, 17:51:04,VALID,918.299,VALID,0,INVALID,128.31,VALID,263.446,VALID,22.4696,VALID,138,VALID,0,
2017-02-28, 17:52:04,VALID,918.316,VALID,0,INVALID,125.885,VALID,250.553,VALID,22.5264,VALID,185,VALID,0,
2017-02-28, 17:53:04,VALID,918.281,VALID,0,INVALID,127.456,VALID,240.453,VALID,22.5867,VALID,240,VALID,0,
2017-02-28, 17:54:04,VALID,918.265,VALID,0,INVALID,129.827,VALID,232.18,VALID,22.5086,VALID,268,VALID,0,
2017-02-28, 17:55:04,VALID,918.229,VALID,0,INVALID,128.127,VALID,216.494,VALID,22.333,VALID,284,VALID,0,
2017-02-28, 17:56:04,VALID,918.217,VALID,0,INVALID,128.752,VALID,196.94,VALID,22.1167,VALID,256,VALID,0,
2017-02-28, 17:57:04,VALID,918.228,VALID,0,INVALID,130.803,VALID,194.039,VALID,22.1184,VALID,262,VALID,0,
2017-02-28, 17:58:04,VALID,918.247,VALID,0,INVALID,129.926,VALID,190.063,VALID,21.9623,VALID,243,VALID,0.0679687,
2017-02-28, 17:59:04,VALID,918.21,VALID,0,INVALID,129.926,VALID,197.155,VALID,21.7477,VALID,254,VALID,2.26523,
2017-02-28, 18:00:04,VALID,918.211,VALID,0,INVALID,130.803,VALID,194.361,VALID,21.5916,VALID,258,VALID,1.675,
2017-02-28, 18:01:04,VALID,918.223,VALID,0,INVALID,131.458,VALID,178.245,VALID,21.4729,VALID,274,VALID,1.29609,
2017-02-28, 18:02:04,VALID,918.205,VALID,0,INVALID,132.35,VALID,171.046,VALID,21.4941,VALID,289,VALID,0,
2017-02-28, 18:03:04,VALID,918.201,VALID,0,INVALID,132.221,VALID,172.55,VALID,21.455,VALID,261,VALID,0,
2017-02-28, 18:04:04,VALID,918.24,VALID,0,INVALID,133.082,VALID,170.402,VALID,21.5331,VALID,270,VALID,0,
2017-02-28, 18:05:04,VALID,918.235,VALID,0,INVALID,133.6,VALID,172.228,VALID,21.6696,VALID,4,VALID,0,
2017-02-28, 18:06:04,VALID,918.208,VALID,0,INVALID,133.6,VALID,186.196,VALID,21.8062,VALID,357,VALID,0,
2017-02-28, 18:07:04,VALID,918.212,VALID,0,INVALID,133.57,VALID,201.882,VALID,21.9233,VALID,321,VALID,0,
2017-02-28, 18:08:04,VALID,918.199,VALID,0,INVALID,133.318,VALID,211.444,VALID,21.9996,VALID,246,VALID,0,
2017-02-28, 18:09:04,VALID,918.203,VALID,0,INVALID,132.175,VALID,217.676,VALID,22.0403,VALID,246,VALID,0,
2017-02-28, 18:10:04,VALID,918.202,VALID,0,INVALID,130.421,VALID,228.312,VALID,22.0013,VALID,264,VALID,0,
2017-02-28, 18:11:04,VALID,918.186,VALID,0,INVALID,130.574,VALID,249.049,VALID,22.0013,VALID,286,VALID,0,
2017-02-28, 18:12:04,VALID,918.172,VALID,0,INVALID,130.726,VALID,269.14,VALID,22.0403,VALID,278,VALID,0,
2017-02-28, 18:13:04,VALID,918.123,VALID,0,INVALID,131.306,VALID,274.62,VALID,22.0972,VALID,274,VALID,0,
2017-02-28, 18:14:04,VALID,918.13,VALID,0,INVALID,129.103,VALID,265.272,VALID,22.0387,VALID,241,VALID,0.473437,
2017-02-28, 18:15:04,VALID,918.102,VALID,0,INVALID,129.331,VALID,247.115,VALID,22.0403,VALID,263,VALID,0,
2017-02-28, 18:16:04,VALID,918.108,VALID,0,INVALID,130.063,VALID,228.957,VALID,22.0191,VALID,250,VALID,0,
2017-02-28, 18:17:04,VALID,918.114,VALID,0,INVALID,129.758,VALID,213.163,VALID,21.9606,VALID,240,VALID,0,
2017-02-28, 18:18:04,VALID,918.106,VALID,0,INVALID,130.543,VALID,198.336,VALID,21.9021,VALID,270,VALID,0,
2017-02-28, 18:19:04,VALID,918.063,VALID,0,INVALID,129.979,VALID,183.402,VALID,21.8062,VALID,261,VALID,0,
2017-02-28, 18:20:04,VALID,918.054,VALID,0,INVALID,130.132,VALID,170.831,VALID,21.8062,VALID,251,VALID,0,
2017-02-28, 18:21:04,VALID,918.035,VALID,0,INVALID,129.08,VALID,165.459,VALID,21.7672,VALID,249,VALID,0,
2017-02-28, 18:22:04,VALID,918.018,VALID,0,INVALID,129.064,VALID,166.856,VALID,21.785,VALID,201,VALID,0,
2017-02-28, 18:23:04,VALID,918.014,VALID,0,INVALID,128.813,VALID,172.336,VALID,21.8647,VALID,325,VALID,0,
2017-02-28, 18:24:04,VALID,918.008,VALID,0,INVALID,129.072,VALID,178.245,VALID,21.8241,VALID,287,VALID,0,
2017-02-28, 18:25:04,VALID,918.028,VALID,0,INVALID,129.972,VALID,182.65,VALID,21.9216,VALID,289,VALID,0,
2017-02-28, 18:26:04,VALID,917.98,VALID,0,INVALID,130.048,VALID,184.906,VALID,22.0403,VALID,303,VALID,0,
2017-02-28, 18:27:04,VALID,917.98,VALID,0,INVALID,128.904,VALID,188.344,VALID,22.1167,VALID,306,VALID,0,
2017-02-28, 18:28:04,VALID,917.983,VALID,0,INVALID,126.922,VALID,191.997,VALID,22.1769,VALID,275,VALID,0,
2017-02-28, 18:29:04,VALID,917.955,VALID,0,INVALID,127.441,VALID,188.667,VALID,22.1557,VALID,285,VALID,0,
2017-02-28, 18:30:04,VALID,917.962,VALID,0,INVALID,127.456,VALID,178.675,VALID,22.1574,VALID,285,VALID,0,
2017-02-28, 18:31:04,VALID,917.957,VALID,0,INVALID,126.793,VALID,164.063,VALID,22.1184,VALID,274,VALID,0,
2017-02-28, 18:32:04,VALID,917.949,VALID,0,INVALID,128.142,VALID,150.525,VALID,22.0403,VALID,273,VALID,0,
2017-02-28, 18:33:04,VALID,917.951,VALID,0,INVALID,129.171,VALID,142.36,VALID,21.9801,VALID,273,VALID,0,
2017-02-28, 18:34:04,VALID,917.945,VALID,0,INVALID,128.744,VALID,141.285,VALID,21.9428,VALID,274,VALID,0,
2017-02-28, 18:35:04,VALID,917.907,VALID,0,INVALID,128.767,VALID,146.765,VALID,21.9623,VALID,276,VALID,0,
2017-02-28, 18:36:04,VALID,917.928,VALID,0,INVALID,128.409,VALID,152.674,VALID,21.9233,VALID,273,VALID,0,
2017-02-28, 18:37:04,VALID,917.933,VALID,0,INVALID,129.034,VALID,158.046,VALID,21.9428,VALID,273,VALID,0,
2017-02-28, 18:38:04,VALID,917.903,VALID,0,INVALID,128.089,VALID,162.558,VALID,21.9021,VALID,273,VALID,0,
2017-02-28, 18:39:04,VALID,917.905,VALID,0,INVALID,128.508,VALID,162.129,VALID,21.9038,VALID,273,VALID,0,
2017-02-28, 18:40:04,VALID,917.896,VALID,0,INVALID,128.432,VALID,157.616,VALID,21.9038,VALID,273,VALID,0,
2017-02-28, 18:41:04,VALID,917.901,VALID,0,INVALID,129.324,VALID,153.426,VALID,21.9411,VALID,273,VALID,0,
2017-02-28, 18:42:04,VALID,917.889,VALID,0,INVALID,128.79,VALID,149.451,VALID,22.0403,VALID,273,VALID,0,
2017-02-28, 18:43:04,VALID,917.884,VALID,0,INVALID,127.608,VALID,147.087,VALID,22.0598,VALID,273,VALID,0,
2017-02-28, 18:44:04,VALID,917.879,VALID,0,INVALID,126.152,VALID,148.484,VALID,22.1201,VALID,273,VALID,0,
2017-02-28, 18:45:04,VALID,917.863,VALID,0,INVALID,127.052,VALID,153.963,VALID,22.1184,VALID,273,VALID,0,
2017-02-28, 18:46:04,VALID,917.862,VALID,0,INVALID,121.906,VALID,159.335,VALID,22.0794,VALID,273,VALID,0,
2017-02-28, 18:47:04,VALID,917.867,VALID,0,INVALID,125.985,VALID,162.881,VALID,22.0598,VALID,274,VALID,0,
2017-02-28, 18:48:04,VALID,917.866,VALID,0,INVALID,127.692,VALID,166.534,VALID,22.1167,VALID,277,VALID,0,
2017-02-28, 18:49:04,VALID,917.814,VALID,0,INVALID,128.424,VALID,173.303,VALID,22.255,VALID,287,VALID,0,
2017-02-28, 18:50:04,VALID,917.814,VALID,0,INVALID,127.799,VALID,181.898,VALID,22.294,VALID,303,VALID,0,
2017-02-28, 18:51:04,VALID,917.797,VALID,0,INVALID,124.78,VALID,193.609,VALID,22.255,VALID,274,VALID,0,
2017-02-28, 18:52:04,VALID,917.791,VALID,0,INVALID,126.343,VALID,205.965,VALID,22.2159,VALID,274,VALID,0,
2017-02-28, 18:53:04,VALID,917.772,VALID,0,INVALID,123.233,VALID,219.717,VALID,22.1184,VALID,274,VALID,0,
2017-02-28, 18:54:04,VALID,917.756,VALID,0,INVALID,127.54,VALID,234.544,VALID,22.0989,VALID,274,VALID,0,
2017-02-28, 18:55:04,VALID,917.756,VALID,0,INVALID,127.12,VALID,247.974,VALID,22.1574,VALID,271,VALID,0,
2017-02-28, 18:56:04,VALID,917.773,VALID,0,INVALID,127.73,VALID,260.437,VALID,22.2354,VALID,269,VALID,0,